User: anonymous   Login
Location: Passau
(48.5830°N, 13.4830°E)
Time: 15:42:11
(UTC+02:00)
Language:

Explorer 7 - Orbit

View from above orbital plane
View from above orbital plane
View from above satellite
View from above satellite

Ground track
Ground track

The orbit data is extracted from the following two-line orbital elements,

1    22U 59009A   24138.87728091  .00012137  00000-0  71323-3 0  9990
2    22  50.2777 197.8421 0114758 350.9103   8.9771 15.06616415439792
Epoch (UTC): 17 May 2024 21:03:17
Eccentricity: 0.0114758
inclination: 50.2777°
perigee height: 467 km
apogee height: 626 km
right ascension of ascending node: 197.8421°
argument of perigee: 350.9103°
revolutions per day: 15.06616415
mean anomaly at epoch: 8.9771°
orbit number at epoch: 43979

The dashed part of the orbit path shows where the satellite is in the earth's shadow,  

DLR